Regional Weather Roundup
Issued by NWS Green Bay, WI

Home | Current Version | Previous Version | Graphics & Text | Print | Product List | Glossary Off
Versions: 1 2 3 4 5 6 7 8 9 10 11 12 13 14 15 16 17 18 19 20 21 22 23 24 25 26 27 28 29 30 31 32 33 34 35 36 37 38 39 40 41 42 43 44 45 46 47 48 49 50

000
ASUS43 KGRB 232111
RWRGRB

NORTH-CENTRAL AND NORTHEAST WISCONSIN REGIONAL WEATHER ROUNDUP
NATIONAL WEATHER SERVICE GREEN BAY WI
400 PM CDT SAT MAY 23 2015

WIZ005-009-010>012-018-019-232200-
NORTH CENTRAL WISCONSIN

CITY           SKY/WX    TMP DP  RH WIND       PRES   REMARKS
IRONWOOD       SUNNY     75  34  22 SW7       30.12F
MANITOWISH WTR SUNNY     74  34  23 W10       30.18F
ARBOR VITAE    SUNNY     77  33  20 W8G16     30.19F
EAGLE RIVER    SUNNY     76  21  12 SW13G21   30.18F
LAND O LAKES   SUNNY     77  22  13 W7        30.19F
RHINELANDER    MOSUNNY   75  35  23 SW15      30.20F
PHILLIPS       CLOUDY    72  40  31 SW12      30.20F
ANTIGO         PTSUNNY   71  40  32 SW8       30.22F
TOMAHAWK       PTSUNNY   72  38  29 CALM      30.21S
MERRILL        PTSUNNY   74  38  26 W7        30.22F
$$

WIZ013-073-232200-
NORTHEAST WISCONSIN

CITY           SKY/WX    TMP DP  RH WIND       PRES   REMARKS
IRON MOUNTAIN  SUNNY     79  29  16 SW13      30.16F
MARINETTE      MOSUNNY   77  39  25 S14       30.18F
OCONTO         MOSUNNY   78  38  24 SW6       30.19F
$$

WIZ017-030-035>037-045-232200-
CENTRAL WISCONSIN

CITY           SKY/WX    TMP DP  RH WIND       PRES   REMARKS
MEDFORD        PTSUNNY   72  39  30 SW7       30.21F
WAUSAU         PTSUNNY   74  39  28 W15       30.19F
MOSINEE        MOSUNNY   73  39  29 W3        30.22F
MARSHFIELD     PTSUNNY   75  39  27 SW7       30.20F
WISC RAPIDS    MOSUNNY   78  33  19 SW9       30.21F
STEVENS POINT  MOSUNNY   74  36  24 SW3       30.21F
WAUPACA        MOSUNNY   81  34  18 SW10      30.20F
SHAWANO        PTSUNNY   79  37  21 W9        30.20F
CLINTONVILLE   PTSUNNY   79  32  18 SW7       30.20F
$$

WIZ038-039-048-051-232200-
FOX VALLEY

CITY           SKY/WX    TMP DP  RH WIND       PRES   REMARKS
NWS GREEN BAY  PTSUNNY   78  37  22 SW9       30.21F
APPLETON       MOSUNNY   75  37  25 S9        30.22F
OSHKOSH        MOSUNNY   76  38  25 SW5       30.21F
FOND DU LAC    MOSUNNY   79  37  22 S6        30.21F
$$

WIZ022-050-052-232200-
EAST CENTRAL WISCONSIN

CITY           SKY/WX    TMP DP  RH WIND       PRES   REMARKS
STURGEON BAY   SUNNY     72  37  28 S16       30.24F
MANITOWOC      MOSUNNY   67  37  33 S20       30.24F
SHEBOYGAN      SUNNY     73  40  30 S12G20    30.24F
$$

LMZ563-521-522-541>543-232200-
LAKESHORE

STATION/POSITION TIME  TEMP    WIND        PRES    VSBY  WAVE
                       AIR SEA DIR/SP/G                  HT/PER
                 (UTC) (F)     (DEG/KT/KT) (MB)    (MI)  (FT/S)
SHEBOYGAN LKSHOR 2100   49     170/ 14/ 15 1024.6F
KEWAUNEE LKSHORE 2000   50     180/ 13/ 15 1023.6F
NORTHPORT PIER   2000          170/  7/ 15 1023.4
N MID LAKE BUOY  2050   42 36  200/ 14/ 16 1023.8F         2/ 4
SISTER BAY LKSHO 2002   74     190/ 18/ 20   N/A
STURGEON BAY CG  2045      50  180/ 12     1024.3      6   3
CHAMBERS ISLAND  2000   71     180/  7/ 14 1023.0F
MENOMINEE LKSHOR 2000   70     180/ 11/ 16 1023.4F
$$


USA.gov is the U.S. government's official web portal to all federal, state and local government web resources and services.